Year,Month,Day,Hour,Minute,Value (Times are PST for temperature in C)
2008,11,14,00,00,4.10
2008,11,14,00,01,4.10
2008,11,14,00,02,4.10
2008,11,14,00,03,4.10
2008,11,14,00,04,4.10
2008,11,14,00,05,4.10
2008,11,14,00,06,4.10
2008,11,14,00,07,4.10
2008,11,14,00,08,4.10
2008,11,14,00,09,4.10
2008,11,14,00,10,4.10
2008,11,14,00,11,4.10
2008,11,14,00,12,4.10
2008,11,14,00,13,4.10
2008,11,14,01,02,4.00
2008,11,14,01,03,3.90
2008,11,14,01,04,3.90
2008,11,14,01,05,3.90
2008,11,14,01,06,3.90
2008,11,14,01,07,3.90
2008,11,14,01,08,3.90
2008,11,14,01,09,3.90
2008,11,14,01,10,3.90
2008,11,14,01,11,3.90
2008,11,14,01,12,4.00
2008,11,14,01,13,4.00
2008,11,14,01,14,4.00
2008,11,14,01,15,4.00
2008,11,14,01,16,4.00
2008,11,14,01,17,4.00
2008,11,14,01,18,4.00
2008,11,14,01,19,4.00
2008,11,14,01,20,4.00
2008,11,14,01,21,4.00
2008,11,14,01,22,4.00
2008,11,14,01,23,4.00
2008,11,14,01,24,4.00
2008,11,14,01,25,4.00
2008,11,14,01,26,4.00
2008,11,14,01,27,4.00
2008,11,14,01,28,4.00
2008,11,14,01,29,4.00
2008,11,14,01,30,4.00
2008,11,14,01,31,4.00
2008,11,14,01,32,4.00
2008,11,14,01,33,4.00
2008,11,14,01,34,4.00
2008,11,14,01,35,4.00
2008,11,14,01,36,4.00
2008,11,14,01,37,4.00
2008,11,14,01,38,4.00
2008,11,14,01,39,4.00
2008,11,14,01,40,4.00
2008,11,14,01,41,4.00
2008,11,14,01,42,4.00
2008,11,14,01,43,4.00
2008,11,14,01,44,4.00
2008,11,14,01,45,4.00
2008,11,14,01,46,4.00
2008,11,14,01,47,4.00
2008,11,14,01,48,4.00
2008,11,14,01,49,4.00
2008,11,14,01,50,4.00
2008,11,14,01,51,4.00
2008,11,14,01,52,4.00
2008,11,14,01,53,4.00
2008,11,14,01,54,4.00
2008,11,14,01,55,4.00
2008,11,14,01,56,4.00
2008,11,14,01,57,4.00
2008,11,14,01,58,4.00
2008,11,14,01,59,4.00
2008,11,14,02,00,4.00
2008,11,14,02,01,4.00
2008,11,14,02,02,4.00
2008,11,14,02,03,4.00
2008,11,14,02,04,4.00
2008,11,14,02,05,4.00
2008,11,14,02,06,4.00
2008,11,14,02,07,4.00
2008,11,14,02,08,4.00
2008,11,14,02,09,4.00
2008,11,14,02,10,4.10
2008,11,14,02,11,4.10
2008,11,14,02,12,4.00
2008,11,14,02,13,4.10
2008,11,14,02,14,4.10
2008,11,14,02,15,4.10
2008,11,14,02,16,4.10
2008,11,14,02,17,4.10
2008,11,14,02,18,4.10
2008,11,14,02,19,4.10
2008,11,14,02,20,4.10
2008,11,14,02,21,4.10
2008,11,14,02,22,4.10
2008,11,14,02,23,4.10
2008,11,14,02,24,4.10
2008,11,14,02,25,4.10
2008,11,14,02,26,4.10
2008,11,14,02,27,4.10
2008,11,14,02,28,4.10
2008,11,14,02,29,4.10
2008,11,14,02,30,4.10
2008,11,14,02,31,4.10
2008,11,14,02,32,4.10
2008,11,14,02,33,4.10
2008,11,14,02,34,4.10
2008,11,14,02,35,4.10
2008,11,14,02,36,4.10
2008,11,14,02,37,4.10
2008,11,14,02,38,4.10
2008,11,14,02,39,4.10
2008,11,14,02,40,4.20
2008,11,14,02,41,4.20
2008,11,14,02,42,4.20
2008,11,14,02,43,4.20
2008,11,14,02,44,4.20
2008,11,14,02,45,4.20
2008,11,14,02,46,4.20
2008,11,14,02,47,4.20
2008,11,14,02,48,4.20
2008,11,14,02,49,4.20
2008,11,14,02,50,4.20
2008,11,14,02,51,4.20
2008,11,14,02,52,4.20
2008,11,14,02,53,4.20
2008,11,14,02,54,4.20
2008,11,14,02,55,4.20
2008,11,14,02,56,4.20
2008,11,14,02,57,4.30
2008,11,14,02,58,4.30
2008,11,14,02,59,4.30
2008,11,14,03,00,4.30
2008,11,14,03,01,4.20
2008,11,14,03,02,4.20
2008,11,14,03,03,4.30
2008,11,14,03,04,4.20
2008,11,14,03,05,4.20
2008,11,14,03,06,4.20
2008,11,14,03,07,4.20
2008,11,14,03,08,4.20
2008,11,14,03,09,4.20
2008,11,14,03,10,4.20
2008,11,14,03,11,4.20
2008,11,14,03,12,4.20
2008,11,14,03,13,4.20
2008,11,14,03,14,4.20
2008,11,14,03,15,4.20
2008,11,14,03,16,4.20
2008,11,14,03,17,4.20
2008,11,14,03,18,4.20
2008,11,14,03,19,4.20
2008,11,14,03,20,4.20
2008,11,14,03,21,4.20
2008,11,14,03,22,4.20
2008,11,14,03,23,4.20
2008,11,14,03,24,4.20
2008,11,14,03,25,4.20
2008,11,14,03,26,4.20
2008,11,14,03,27,4.30
2008,11,14,03,28,4.30
2008,11,14,03,29,4.30
2008,11,14,03,30,4.30
2008,11,14,03,31,4.30
2008,11,14,03,32,4.30
2008,11,14,03,33,4.30
2008,11,14,03,34,4.30
2008,11,14,03,35,4.30
2008,11,14,03,36,4.30
2008,11,14,03,37,4.30
2008,11,14,03,38,4.30
2008,11,14,03,39,4.30
2008,11,14,03,40,4.30
2008,11,14,03,41,4.30
2008,11,14,03,42,4.30
2008,11,14,03,43,4.30
2008,11,14,03,44,4.30
2008,11,14,03,45,4.30
2008,11,14,03,46,4.30
2008,11,14,03,47,4.30
2008,11,14,03,48,4.30
2008,11,14,03,49,4.30
2008,11,14,03,50,4.30
2008,11,14,03,51,4.30
2008,11,14,03,52,4.30
2008,11,14,03,53,4.30
2008,11,14,03,54,4.30
2008,11,14,03,55,4.30
2008,11,14,03,56,4.30
2008,11,14,03,57,4.30
2008,11,14,03,58,4.30
2008,11,14,03,59,4.30
2008,11,14,04,00,4.30
2008,11,14,04,01,4.30
2008,11,14,04,02,4.30
2008,11,14,04,03,4.30
2008,11,14,04,04,4.30
2008,11,14,04,05,4.30
2008,11,14,04,06,4.30
2008,11,14,04,07,4.30
2008,11,14,04,08,4.30
2008,11,14,04,09,4.30
2008,11,14,04,10,4.30
2008,11,14,04,11,4.30
2008,11,14,04,12,4.30
2008,11,14,04,13,4.30
2008,11,14,04,14,4.30
2008,11,14,04,15,4.30
2008,11,14,04,16,4.30
2008,11,14,04,17,4.30
2008,11,14,04,18,4.30
2008,11,14,04,19,4.30
2008,11,14,04,20,4.30
2008,11,14,04,21,4.30
2008,11,14,04,22,4.30
2008,11,14,04,23,4.30
2008,11,14,04,24,4.30
2008,11,14,04,25,4.30
2008,11,14,04,26,4.30
2008,11,14,04,27,4.30
2008,11,14,04,28,4.30
2008,11,14,04,29,4.30
2008,11,14,04,30,4.30
2008,11,14,04,31,4.30
2008,11,14,04,32,4.30
2008,11,14,04,33,4.30
2008,11,14,04,34,4.30
2008,11,14,04,35,4.30
2008,11,14,04,36,4.30
2008,11,14,04,37,4.30
2008,11,14,04,38,4.30
2008,11,14,04,39,4.30
2008,11,14,04,40,4.30
2008,11,14,04,41,4.30
2008,11,14,04,42,4.30
2008,11,14,04,43,4.30
2008,11,14,04,44,4.30
2008,11,14,04,45,4.30
2008,11,14,04,46,4.30
2008,11,14,04,47,4.30
2008,11,14,04,48,4.30
2008,11,14,04,49,4.30
2008,11,14,04,50,4.30
2008,11,14,04,51,4.30
2008,11,14,04,52,4.30
2008,11,14,04,53,4.30
2008,11,14,04,54,4.30
2008,11,14,04,55,4.30
2008,11,14,04,56,4.30
2008,11,14,04,57,4.30
2008,11,14,04,58,4.30
2008,11,14,04,59,4.30
2008,11,14,05,00,4.30
2008,11,14,05,01,4.30
2008,11,14,05,02,4.30
2008,11,14,05,03,4.30
2008,11,14,05,04,4.30
2008,11,14,05,05,4.30
2008,11,14,05,06,4.30
2008,11,14,05,07,4.30
2008,11,14,05,08,4.30
2008,11,14,05,09,4.40
2008,11,14,05,10,4.40
2008,11,14,05,11,4.40
2008,11,14,05,12,4.40
2008,11,14,05,13,4.40
2008,11,14,05,14,4.40
2008,11,14,05,15,4.40
2008,11,14,05,16,4.40
2008,11,14,05,17,4.40
2008,11,14,05,18,4.40
2008,11,14,05,19,4.40
2008,11,14,05,20,4.40
2008,11,14,05,21,4.40
2008,11,14,05,22,4.40
2008,11,14,05,23,4.40
2008,11,14,05,24,4.40
2008,11,14,05,25,4.40
2008,11,14,05,26,4.40
2008,11,14,05,27,4.40
2008,11,14,05,28,4.40
2008,11,14,05,29,4.40
2008,11,14,05,30,4.40
2008,11,14,05,31,4.40
2008,11,14,05,32,4.40
2008,11,14,05,33,4.40
2008,11,14,05,34,4.40
2008,11,14,05,35,4.40
2008,11,14,05,36,4.40
2008,11,14,05,37,4.40
2008,11,14,05,38,4.40
2008,11,14,05,39,4.40
2008,11,14,05,40,4.40
2008,11,14,05,41,4.40
2008,11,14,05,42,4.40
2008,11,14,05,43,4.40
2008,11,14,05,44,4.40
2008,11,14,05,45,4.40
2008,11,14,05,46,4.40
2008,11,14,05,47,4.40
2008,11,14,05,48,4.40
2008,11,14,05,49,4.40
2008,11,14,05,50,4.40
2008,11,14,05,51,4.40
2008,11,14,05,52,4.40
2008,11,14,05,53,4.40
2008,11,14,05,54,4.40
2008,11,14,05,55,4.40
2008,11,14,05,56,4.40
2008,11,14,05,57,4.40
2008,11,14,05,58,4.40
2008,11,14,05,59,4.40
2008,11,14,06,00,4.40
2008,11,14,06,01,4.40
2008,11,14,06,02,4.40
2008,11,14,06,03,4.40
2008,11,14,06,04,4.40
2008,11,14,06,05,4.40
2008,11,14,06,06,4.40
2008,11,14,06,07,4.40
2008,11,14,06,08,4.40
2008,11,14,06,09,4.40
2008,11,14,06,10,4.40
2008,11,14,06,11,4.40
2008,11,14,06,12,4.40
2008,11,14,06,13,4.40
2008,11,14,06,14,4.40
2008,11,14,06,15,4.40
2008,11,14,06,16,4.40
2008,11,14,06,17,4.40
2008,11,14,06,18,4.40
2008,11,14,06,19,4.40
2008,11,14,06,20,4.40
2008,11,14,06,21,4.40
2008,11,14,06,22,4.40
2008,11,14,06,23,4.40
2008,11,14,06,24,4.40
2008,11,14,06,25,4.40
2008,11,14,06,26,4.40
2008,11,14,06,27,4.40
2008,11,14,06,28,4.50
2008,11,14,06,29,4.40
2008,11,14,06,30,4.40
2008,11,14,06,31,4.50
2008,11,14,06,32,4.50
2008,11,14,06,33,4.50
2008,11,14,06,34,4.50
2008,11,14,06,35,4.50
2008,11,14,06,36,4.50
2008,11,14,06,37,4.60
2008,11,14,06,38,4.60
2008,11,14,06,39,4.60
2008,11,14,06,40,4.60
2008,11,14,06,41,4.60
2008,11,14,06,42,4.60
2008,11,14,06,43,4.60
2008,11,14,06,44,4.60
2008,11,14,06,45,4.60
2008,11,14,06,46,4.60
2008,11,14,06,47,4.60
2008,11,14,06,48,4.60
2008,11,14,06,49,4.60
2008,11,14,06,50,4.60
2008,11,14,06,51,4.60
2008,11,14,06,52,4.60
2008,11,14,06,53,4.60
2008,11,14,06,54,4.60
2008,11,14,06,55,4.60
2008,11,14,06,56,4.60
2008,11,14,06,57,4.60
2008,11,14,06,58,4.60
2008,11,14,06,59,4.60
2008,11,14,07,00,4.60
2008,11,14,07,01,4.60
2008,11,14,07,02,4.60
2008,11,14,07,03,4.60
2008,11,14,07,04,4.60
2008,11,14,07,05,4.60
2008,11,14,07,06,4.60
2008,11,14,07,07,4.60
2008,11,14,07,08,4.60
2008,11,14,07,09,4.60
2008,11,14,07,10,4.60
2008,11,14,07,11,4.60
2008,11,14,07,12,4.60
2008,11,14,07,13,4.60
2008,11,14,07,14,4.60
2008,11,14,07,15,4.60
2008,11,14,07,16,4.70
2008,11,14,07,17,4.60
2008,11,14,07,18,4.60
2008,11,14,07,19,4.70
2008,11,14,07,20,4.70
2008,11,14,07,21,4.70
2008,11,14,07,22,4.70
2008,11,14,07,23,4.70
2008,11,14,07,24,4.70
2008,11,14,07,25,4.70
2008,11,14,07,26,4.70
2008,11,14,07,27,4.70
2008,11,14,07,28,4.70
2008,11,14,07,29,4.70
2008,11,14,07,30,4.70
2008,11,14,07,31,4.70
2008,11,14,07,32,4.70
2008,11,14,07,33,4.70
2008,11,14,07,34,4.70
2008,11,14,07,35,4.70
2008,11,14,07,36,4.70
2008,11,14,07,37,4.70
2008,11,14,07,38,4.70
2008,11,14,07,39,4.70
2008,11,14,07,40,4.70
2008,11,14,07,41,4.70
2008,11,14,07,42,4.70
2008,11,14,07,43,4.70
2008,11,14,07,44,4.70
2008,11,14,07,45,4.70
2008,11,14,07,46,4.70
2008,11,14,07,47,4.70
2008,11,14,07,48,4.70
2008,11,14,07,49,4.70
2008,11,14,07,50,4.70
2008,11,14,07,51,4.70
2008,11,14,07,52,4.70
2008,11,14,07,53,4.70
2008,11,14,07,54,4.70
2008,11,14,07,55,4.70
2008,11,14,07,56,4.70
2008,11,14,07,57,4.70
2008,11,14,07,58,4.70
2008,11,14,07,59,4.70
2008,11,14,08,00,4.70
2008,11,14,08,01,4.70
2008,11,14,08,02,4.70
2008,11,14,08,03,4.70
2008,11,14,08,04,4.70
2008,11,14,08,05,4.70
2008,11,14,08,06,4.70
2008,11,14,08,07,4.80
2008,11,14,08,08,4.80
2008,11,14,08,09,4.80
2008,11,14,08,10,4.80
2008,11,14,08,11,4.80
2008,11,14,08,12,4.80
2008,11,14,08,13,4.80
2008,11,14,08,14,4.80
2008,11,14,08,15,4.90
2008,11,14,08,16,4.90
2008,11,14,08,17,4.90
2008,11,14,08,18,4.80
2008,11,14,08,19,4.90
2008,11,14,08,20,4.80
2008,11,14,08,21,4.80
2008,11,14,08,22,4.90
2008,11,14,08,23,4.90
2008,11,14,08,24,4.90
2008,11,14,08,25,4.90
2008,11,14,08,26,4.90
2008,11,14,08,27,4.90
2008,11,14,08,28,4.80
2008,11,14,08,29,4.90
2008,11,14,08,30,4.90
2008,11,14,08,31,4.90
2008,11,14,08,32,4.90
2008,11,14,08,33,4.90
2008,11,14,08,34,4.90
2008,11,14,08,35,4.90
2008,11,14,08,36,4.90
2008,11,14,08,37,4.90
2008,11,14,08,38,4.90
2008,11,14,08,39,5.00
2008,11,14,08,40,5.00
2008,11,14,08,41,5.00
2008,11,14,08,42,5.10
2008,11,14,08,43,5.10
2008,11,14,08,44,5.10
2008,11,14,08,45,5.10
2008,11,14,08,46,5.10
2008,11,14,08,47,5.10
2008,11,14,08,48,5.10
2008,11,14,08,49,5.10
2008,11,14,08,50,5.10
2008,11,14,08,51,5.10
2008,11,14,08,52,5.20
2008,11,14,08,53,5.20
2008,11,14,08,54,5.20
2008,11,14,08,55,5.20
2008,11,14,08,56,5.20
2008,11,14,08,57,5.20
2008,11,14,08,58,5.30
2008,11,14,08,59,5.20
2008,11,14,09,00,5.20
2008,11,14,09,01,5.20
2008,11,14,09,02,5.30
2008,11,14,09,03,5.30
2008,11,14,09,04,5.30
2008,11,14,09,05,5.30
2008,11,14,09,06,5.30
2008,11,14,09,07,5.30
2008,11,14,09,08,5.30
2008,11,14,09,09,5.30
2008,11,14,09,10,5.30
2008,11,14,09,11,5.30
2008,11,14,09,12,5.40
2008,11,14,09,13,5.40
2008,11,14,09,14,5.40
2008,11,14,09,15,5.50
2008,11,14,09,16,5.50
2008,11,14,09,17,5.50
2008,11,14,09,18,5.50
2008,11,14,09,19,5.50
2008,11,14,09,20,5.50
2008,11,14,09,21,5.60
2008,11,14,09,22,5.60
2008,11,14,09,23,5.60
2008,11,14,09,24,5.60
2008,11,14,09,25,5.60
2008,11,14,09,26,5.60
2008,11,14,09,27,5.60
2008,11,14,09,28,5.60
2008,11,14,09,29,5.60
2008,11,14,09,30,5.60
2008,11,14,09,31,5.60
2008,11,14,09,32,5.60
2008,11,14,09,33,5.60
2008,11,14,09,34,5.60
2008,11,14,09,35,5.60
2008,11,14,09,36,5.60
2008,11,14,09,37,5.70
2008,11,14,09,38,5.70
2008,11,14,09,39,5.80
2008,11,14,09,40,5.80
2008,11,14,09,41,5.70
2008,11,14,09,42,5.70
2008,11,14,09,43,5.70
2008,11,14,09,44,5.70
2008,11,14,09,45,5.70
2008,11,14,09,46,5.70
2008,11,14,09,47,5.70
2008,11,14,09,48,5.70
2008,11,14,09,49,5.70
2008,11,14,09,50,5.70
2008,11,14,09,51,5.70
2008,11,14,09,52,5.80
2008,11,14,09,53,5.80
2008,11,14,09,54,5.80
2008,11,14,09,55,5.80
2008,11,14,09,56,5.80
2008,11,14,09,57,5.80
2008,11,14,09,58,5.80
2008,11,14,09,59,5.80
2008,11,14,10,00,5.80
2008,11,14,10,01,5.80
2008,11,14,10,02,5.80
2008,11,14,10,03,5.80
2008,11,14,10,04,5.80
2008,11,14,10,05,5.80
2008,11,14,10,06,5.80
2008,11,14,10,07,5.90
2008,11,14,10,08,5.90
2008,11,14,10,09,5.90
2008,11,14,10,10,5.90
2008,11,14,10,11,5.90
2008,11,14,10,12,5.90
2008,11,14,10,13,5.90
2008,11,14,10,14,5.90
2008,11,14,10,15,6.00
2008,11,14,10,16,6.00
2008,11,14,10,17,6.00
2008,11,14,10,18,6.00
2008,11,14,10,19,6.00
2008,11,14,10,20,6.10
2008,11,14,10,21,6.10
2008,11,14,10,22,6.10
2008,11,14,10,23,6.10
2008,11,14,10,24,6.20
2008,11,14,10,25,6.20
2008,11,14,10,26,6.20
2008,11,14,10,27,6.20
2008,11,14,10,28,6.20
2008,11,14,10,29,6.20
2008,11,14,10,30,6.20
2008,11,14,10,31,6.20
2008,11,14,10,32,6.30
2008,11,14,10,33,6.30
2008,11,14,10,34,6.30
2008,11,14,10,35,6.30
2008,11,14,10,36,6.30
2008,11,14,10,37,6.30
2008,11,14,10,38,6.30
2008,11,14,10,39,6.30
2008,11,14,10,40,6.30
2008,11,14,10,41,6.30
2008,11,14,10,42,6.40
2008,11,14,10,43,6.40
2008,11,14,10,44,6.40
2008,11,14,10,45,6.40
2008,11,14,10,46,6.40
2008,11,14,10,47,6.50
2008,11,14,10,48,6.50
2008,11,14,10,49,6.50
2008,11,14,10,50,6.60
2008,11,14,10,51,6.60
2008,11,14,10,52,6.60
2008,11,14,10,53,6.60
2008,11,14,10,54,6.60
2008,11,14,10,55,6.60
2008,11,14,10,56,6.60
2008,11,14,10,57,6.60
2008,11,14,10,58,6.60
2008,11,14,10,59,6.60
2008,11,14,11,00,6.70
2008,11,14,11,01,6.70
2008,11,14,11,02,6.70
2008,11,14,11,03,6.70
2008,11,14,11,04,6.70
2008,11,14,11,05,6.80
2008,11,14,11,06,6.80
2008,11,14,11,07,6.80
2008,11,14,11,08,6.90
2008,11,14,11,09,6.90
2008,11,14,11,10,6.90
2008,11,14,11,11,7.00
2008,11,14,11,12,7.10
2008,11,14,11,13,7.10
2008,11,14,11,14,7.10
2008,11,14,11,15,7.20
2008,11,14,11,16,7.20
2008,11,14,11,17,7.20
2008,11,14,11,18,7.20
2008,11,14,11,19,7.20
2008,11,14,11,20,7.30
2008,11,14,11,21,7.30
2008,11,14,11,22,7.30
2008,11,14,11,23,7.30
2008,11,14,11,24,7.30
2008,11,14,11,25,7.30
2008,11,14,11,26,7.30
2008,11,14,11,27,7.40
2008,11,14,11,28,7.40
2008,11,14,11,29,7.40
2008,11,14,11,30,7.50
2008,11,14,11,31,7.50
2008,11,14,11,32,7.50
2008,11,14,11,33,7.50
2008,11,14,11,34,7.40
2008,11,14,11,35,7.40
2008,11,14,11,36,7.40
2008,11,14,11,37,7.40
2008,11,14,11,38,7.40
2008,11,14,11,39,7.40
2008,11,14,11,40,7.40
2008,11,14,11,41,7.40
2008,11,14,11,42,7.40
2008,11,14,11,43,7.40
2008,11,14,11,44,7.40
2008,11,14,11,45,7.40
2008,11,14,11,46,7.50
2008,11,14,11,47,7.50
2008,11,14,11,48,7.50
2008,11,14,11,49,7.50
2008,11,14,11,50,7.50
2008,11,14,11,51,7.50
2008,11,14,11,52,7.60
2008,11,14,11,53,7.60
2008,11,14,11,54,7.60
2008,11,14,11,55,7.60
2008,11,14,11,56,7.60
2008,11,14,11,57,7.60
2008,11,14,11,58,7.60
2008,11,14,11,59,7.60
2008,11,14,12,00,7.60
2008,11,14,12,01,7.60
2008,11,14,12,02,7.60
2008,11,14,12,03,7.60
2008,11,14,12,04,7.60
2008,11,14,12,05,7.60
2008,11,14,12,06,7.70
2008,11,14,12,07,7.70
2008,11,14,12,08,7.70
2008,11,14,12,09,7.70
2008,11,14,12,10,7.80
2008,11,14,12,11,7.80
2008,11,14,12,12,7.80
2008,11,14,12,13,7.90
2008,11,14,12,14,7.90
2008,11,14,12,15,7.90
2008,11,14,12,16,7.90
2008,11,14,12,17,8.00
2008,11,14,12,18,8.10
2008,11,14,12,19,8.10
2008,11,14,12,20,8.10
2008,11,14,12,21,8.10
2008,11,14,12,22,8.20
2008,11,14,12,23,8.20
2008,11,14,12,24,8.30
2008,11,14,12,25,8.30
2008,11,14,12,26,8.30
2008,11,14,12,27,8.30
2008,11,14,12,28,8.30
2008,11,14,12,29,8.30
2008,11,14,12,30,8.30
2008,11,14,12,31,8.30
2008,11,14,12,32,8.30
2008,11,14,12,33,8.30
2008,11,14,12,34,8.30
2008,11,14,13,07,8.80
2008,11,14,13,08,8.80
2008,11,14,13,09,8.80
2008,11,14,13,10,8.80
2008,11,14,13,11,8.80
2008,11,14,13,12,8.90
2008,11,14,13,13,8.80
2008,11,14,13,14,8.80
2008,11,14,13,15,8.80
2008,11,14,13,16,8.80
2008,11,14,13,17,8.80
2008,11,14,13,18,8.80
2008,11,14,13,19,8.80
2008,11,14,13,20,8.80
2008,11,14,13,21,8.80
2008,11,14,13,22,8.80
2008,11,14,13,23,8.80
2008,11,14,13,24,8.80
2008,11,14,13,25,8.80
2008,11,14,13,26,8.70
2008,11,14,13,27,8.70
2008,11,14,13,28,8.70
2008,11,14,13,29,8.60
2008,11,14,13,30,8.60
2008,11,14,13,31,8.60
2008,11,14,13,32,8.60
2008,11,14,13,33,8.60
2008,11,14,13,34,8.60
2008,11,14,13,35,8.60
2008,11,14,13,36,8.60
2008,11,14,13,37,8.60
2008,11,14,13,38,8.60
2008,11,14,13,39,8.60
2008,11,14,13,40,8.50
2008,11,14,13,41,8.50
2008,11,14,13,42,8.50
2008,11,14,13,43,8.50
2008,11,14,13,44,8.50
2008,11,14,13,45,8.50
2008,11,14,13,46,8.50
2008,11,14,13,47,8.40
2008,11,14,13,48,8.40
2008,11,14,13,49,8.30
2008,11,14,13,50,8.20
2008,11,14,13,51,8.20
2008,11,14,13,52,8.20
2008,11,14,13,53,8.10
2008,11,14,13,54,8.10
2008,11,14,13,55,8.20
2008,11,14,13,56,8.20
2008,11,14,13,57,8.20
2008,11,14,13,58,8.20
2008,11,14,13,59,8.10
2008,11,14,14,00,8.10
2008,11,14,14,01,8.10
2008,11,14,14,02,8.10
2008,11,14,14,03,8.00
2008,11,14,14,04,8.00
2008,11,14,14,05,8.00
2008,11,14,14,06,8.00
2008,11,14,14,07,7.90
2008,11,14,14,08,7.90
2008,11,14,14,09,7.90
2008,11,14,14,10,7.90
2008,11,14,14,11,7.90
2008,11,14,14,12,7.90
2008,11,14,14,13,7.80
2008,11,14,14,14,7.80
2008,11,14,14,15,7.80
2008,11,14,14,16,7.80
2008,11,14,14,17,7.80
2008,11,14,14,18,7.80
2008,11,14,14,19,7.80
2008,11,14,14,20,7.80
2008,11,14,14,21,7.80
2008,11,14,14,22,7.80
2008,11,14,14,23,7.80
2008,11,14,14,24,7.80
2008,11,14,14,25,7.80
2008,11,14,14,26,7.80
2008,11,14,14,27,7.80
2008,11,14,14,28,7.80
2008,11,14,14,29,7.80
2008,11,14,14,30,7.80
2008,11,14,14,31,7.80
2008,11,14,14,32,7.80
2008,11,14,14,33,7.80
2008,11,14,14,34,7.80
2008,11,14,14,35,7.80
2008,11,14,14,36,7.80
2008,11,14,14,37,7.80
2008,11,14,14,38,7.80
2008,11,14,14,39,7.80
2008,11,14,14,40,7.70
2008,11,14,14,41,7.70
2008,11,14,14,42,7.70
2008,11,14,14,43,7.70
2008,11,14,14,44,7.60
2008,11,14,14,45,7.60
2008,11,14,14,46,7.60
2008,11,14,14,47,7.60
2008,11,14,14,48,7.60
2008,11,14,14,49,7.50
2008,11,14,14,50,7.50
2008,11,14,14,51,7.50
2008,11,14,14,52,7.50
2008,11,14,14,53,7.50
2008,11,14,14,54,7.40
2008,11,14,14,55,7.40
2008,11,14,14,56,7.40
2008,11,14,14,57,7.30
2008,11,14,14,58,7.30
2008,11,14,14,59,7.20
2008,11,14,15,00,7.20
2008,11,14,15,01,7.20
2008,11,14,15,02,7.10
2008,11,14,15,03,7.10
2008,11,14,15,04,7.10
2008,11,14,15,05,7.00
2008,11,14,15,06,7.00
2008,11,14,15,07,6.90
2008,11,14,15,08,6.80
2008,11,14,15,09,6.80
2008,11,14,15,10,6.80
2008,11,14,15,11,6.80
2008,11,14,15,12,6.80
2008,11,14,15,13,6.70
2008,11,14,15,14,6.70
2008,11,14,15,15,6.70
2008,11,14,15,16,6.70
2008,11,14,15,17,6.70
2008,11,14,15,18,6.70
2008,11,14,15,19,6.70
2008,11,14,15,20,6.70
2008,11,14,15,21,6.70
2008,11,14,15,22,6.70
2008,11,14,15,23,6.70
2008,11,14,15,24,6.70
2008,11,14,15,25,6.70
2008,11,14,15,26,6.70
2008,11,14,15,27,6.70
2008,11,14,15,28,6.70
2008,11,14,15,29,6.70
2008,11,14,15,30,6.70
2008,11,14,15,31,6.70
2008,11,14,15,32,6.70
2008,11,14,15,33,6.70
2008,11,14,15,34,6.70
2008,11,14,15,35,6.70
2008,11,14,15,36,6.70
2008,11,14,15,37,6.70
2008,11,14,15,38,6.60
2008,11,14,15,39,6.60
2008,11,14,15,40,6.60
2008,11,14,15,41,6.60
2008,11,14,15,42,6.60
2008,11,14,15,43,6.60
2008,11,14,15,44,6.60
2008,11,14,15,45,6.60
2008,11,14,15,46,6.60
2008,11,14,15,47,6.60
2008,11,14,15,48,6.60
2008,11,14,15,49,6.60
2008,11,14,15,50,6.60
2008,11,14,15,51,6.60
2008,11,14,15,52,6.60
2008,11,14,15,53,6.60
2008,11,14,15,54,6.60
2008,11,14,15,55,6.60
2008,11,14,15,56,6.60
2008,11,14,15,57,6.60
2008,11,14,15,58,6.60
2008,11,14,15,59,6.60
2008,11,14,16,00,6.60
2008,11,14,16,01,6.60
2008,11,14,16,02,6.60
2008,11,14,16,03,6.60
2008,11,14,16,04,6.60
2008,11,14,16,05,6.60
2008,11,14,16,06,6.60
2008,11,14,16,07,6.60
2008,11,14,16,08,6.60
2008,11,14,16,09,6.60
2008,11,14,16,10,6.60
2008,11,14,16,11,6.60
2008,11,14,16,12,6.60
2008,11,14,16,13,6.60
2008,11,14,16,14,6.60
2008,11,14,16,15,6.50
2008,11,14,16,16,6.50
2008,11,14,16,17,6.50
2008,11,14,16,18,6.50
2008,11,14,16,19,6.50
2008,11,14,16,20,6.50
2008,11,14,16,21,6.50
2008,11,14,16,22,6.50
2008,11,14,16,23,6.50
2008,11,14,16,24,6.50
2008,11,14,16,25,6.50
2008,11,14,16,26,6.50
2008,11,14,16,27,6.60
2008,11,14,16,28,6.50
2008,11,14,16,29,6.60
2008,11,14,16,30,6.60
2008,11,14,16,31,6.60
2008,11,14,16,32,6.60
2008,11,14,16,33,6.60
2008,11,14,16,34,6.60
2008,11,14,16,35,6.70
2008,11,14,16,36,6.70
2008,11,14,16,37,6.70
2008,11,14,16,38,6.60
2008,11,14,16,39,6.60
2008,11,14,16,40,6.60
2008,11,14,16,41,6.60
2008,11,14,16,42,6.50
2008,11,14,16,43,6.50
2008,11,14,16,44,6.50
2008,11,14,16,45,6.50
2008,11,14,16,46,6.50
2008,11,14,16,47,6.50
2008,11,14,16,48,6.50
2008,11,14,16,49,6.60
2008,11,14,16,50,6.60
2008,11,14,16,51,6.60
2008,11,14,16,52,6.60
2008,11,14,16,53,6.60
2008,11,14,16,54,6.50
2008,11,14,16,55,6.50
2008,11,14,16,56,6.50
2008,11,14,16,57,6.50
2008,11,14,16,58,6.50
2008,11,14,16,59,6.40
2008,11,14,17,00,6.40
2008,11,14,17,01,6.40
2008,11,14,17,02,6.50
2008,11,14,17,03,6.50
2008,11,14,17,04,6.50
2008,11,14,17,05,6.50
2008,11,14,17,06,6.50
2008,11,14,17,07,6.50
2008,11,14,17,08,6.50
2008,11,14,17,09,6.40
2008,11,14,17,10,6.40
2008,11,14,17,11,6.40
2008,11,14,17,12,6.40
2008,11,14,17,13,6.40
2008,11,14,17,14,6.40
2008,11,14,17,15,6.40
2008,11,14,17,16,6.40
2008,11,14,17,17,6.40
2008,11,14,17,18,6.40
2008,11,14,17,19,6.40
2008,11,14,17,20,6.40
2008,11,14,17,21,6.40
2008,11,14,17,22,6.40
2008,11,14,17,23,6.30
2008,11,14,17,24,6.30
2008,11,14,17,25,6.30
2008,11,14,17,26,6.30
2008,11,14,17,27,6.30
2008,11,14,17,28,6.30
2008,11,14,17,29,6.30
2008,11,14,17,30,6.30
2008,11,14,17,31,6.30
2008,11,14,17,32,6.30
2008,11,14,17,33,6.30
2008,11,14,17,34,6.30
2008,11,14,17,35,6.30
2008,11,14,17,36,6.30
2008,11,14,17,37,6.30
2008,11,14,17,38,6.30
2008,11,14,17,39,6.30
2008,11,14,17,40,6.30
2008,11,14,17,41,6.30
2008,11,14,17,42,6.30
2008,11,14,17,43,6.30
2008,11,14,17,44,6.20
2008,11,14,17,45,6.20
2008,11,14,17,46,6.20
2008,11,14,17,47,6.20
2008,11,14,17,48,6.20
2008,11,14,17,49,6.20
2008,11,14,17,50,6.20
2008,11,14,17,51,6.20
2008,11,14,17,52,6.20
2008,11,14,17,53,6.20
2008,11,14,17,54,6.20
2008,11,14,17,55,6.20
2008,11,14,17,56,6.20
2008,11,14,17,57,6.20
2008,11,14,17,58,6.20
2008,11,14,17,59,6.20
2008,11,14,18,00,6.20
2008,11,14,18,01,6.30
2008,11,14,18,02,6.20
2008,11,14,18,03,6.20
2008,11,14,18,04,6.20
2008,11,14,18,05,6.20
2008,11,14,18,06,6.20
2008,11,14,18,07,6.20
2008,11,14,18,08,6.20
2008,11,14,18,09,6.20
2008,11,14,18,10,6.20
2008,11,14,18,11,6.30
2008,11,14,18,12,6.20
2008,11,14,18,13,6.20
2008,11,14,18,14,6.30
2008,11,14,18,15,6.30
2008,11,14,18,16,6.30
2008,11,14,18,17,6.30
2008,11,14,18,18,6.30
2008,11,14,18,19,6.20
2008,11,14,18,20,6.20
2008,11,14,18,21,6.20
2008,11,14,18,22,6.20
2008,11,14,18,23,6.20
2008,11,14,18,24,6.30
2008,11,14,18,25,6.30
2008,11,14,18,26,6.30
2008,11,14,18,27,6.30
2008,11,14,18,28,6.30
2008,11,14,18,29,6.30
2008,11,14,18,30,6.30
2008,11,14,18,31,6.30
2008,11,14,18,32,6.30
2008,11,14,18,33,6.30
2008,11,14,18,34,6.20
2008,11,14,18,35,6.20
2008,11,14,18,36,6.20
2008,11,14,18,37,6.20
2008,11,14,18,38,6.20
2008,11,14,18,39,6.30
2008,11,14,18,40,6.30
2008,11,14,18,41,6.30
2008,11,14,18,42,6.30
2008,11,14,18,43,6.30
2008,11,14,18,44,6.30
2008,11,14,18,45,6.30
2008,11,14,18,46,6.30
2008,11,14,18,47,6.20
2008,11,14,18,48,6.20
2008,11,14,18,49,6.20
2008,11,14,18,50,6.20
2008,11,14,18,51,6.20
2008,11,14,18,52,6.20
2008,11,14,18,53,6.20
2008,11,14,18,54,6.20
2008,11,14,18,55,6.20
2008,11,14,18,56,6.20
2008,11,14,18,57,6.20
2008,11,14,18,58,6.20
2008,11,14,18,59,6.20
2008,11,14,19,00,6.20
2008,11,14,19,01,6.20
2008,11,14,19,02,6.20
2008,11,14,19,03,6.20
2008,11,14,19,04,6.20
2008,11,14,19,05,6.20
2008,11,14,19,06,6.20
2008,11,14,19,07,6.20
2008,11,14,19,08,6.20
2008,11,14,19,09,6.20
2008,11,14,19,10,6.20
2008,11,14,19,11,6.20
2008,11,14,19,12,6.20
2008,11,14,19,13,6.20
2008,11,14,19,14,6.20
2008,11,14,19,15,6.20
2008,11,14,19,16,6.20
2008,11,14,19,17,6.20
2008,11,14,19,18,6.20
2008,11,14,19,19,6.20
2008,11,14,19,20,6.20
2008,11,14,19,21,6.20
2008,11,14,19,22,6.20
2008,11,14,19,23,6.20
2008,11,14,19,24,6.20
2008,11,14,19,25,6.20
2008,11,14,19,26,6.20